EW4717 French Riviera FR current weather conditions

sailwx.info

Wind from 150

Air temperature 9.4° C
Dewpoint 1.6° C

Last reported at 2019-Dec-11 20:46 UTC.
Time now 2019-Dec-11 22:04 UTC

Location: N 43°37' E 006°40'.
View on Google Maps.

See reports from other nearby stations

  
Tides and Currents Weather Stations Pressure Air Temp Water Temp Dewpoint Dewpoint Depression Visibility Wind Speed Wind Dir Waves Ship Positions
date/time (UTC)wind fromknots sea level pressurealtimeterstation pressurevisibilityair tempwater tempwave heightnotes
2019-Dec-11 20:46 150 9.4
2019-Dec-11 20:31 182 0 10.0
2019-Dec-11 20:16 149 0 9.4
2019-Dec-11 20:01 170 1 8.9
2019-Dec-11 19:46 164 0 8.9
2019-Dec-11 19:31 161 0 8.9
2019-Dec-11 19:15 175 1 8.9
2019-Dec-11 19:00 200 2 8.3
2019-Dec-11 18:46 207 1 7.8
2019-Dec-11 18:30 176 0 7.8
2019-Dec-11 18:15 216 2 7.8
2019-Dec-11 18:00 178 0 7.8
2019-Dec-11 17:45 167 7.8
2019-Dec-11 17:30 220 7.8
2019-Dec-11 17:15 169 0 8.3
2019-Dec-11 17:00 205 0 7.8
2019-Dec-11 16:45 168 2 7.2
2019-Dec-11 16:30 174 1 6.7
2019-Dec-11 16:15 342 1 6.7
2019-Dec-11 16:00 050 0 7.2
2019-Dec-11 15:45 170 2 8.3
2019-Dec-11 15:30 291 9.4
2019-Dec-11 15:15 048 9.4
2019-Dec-11 15:01 048 9.4
2019-Dec-11 14:48 046 9.4
2019-Dec-11 14:33 046 10.0
2019-Dec-11 14:19 046 10.0
2019-Dec-11 14:02 050 10.0
2019-Dec-11 13:46 171 10.0
2019-Dec-11 13:33 171 10.6
2019-Dec-11 13:17 171 11.1
2019-Dec-11 13:01 224 11.1
2019-Dec-11 12:47 171 0 11.1
2019-Dec-11 12:32 172 0 11.1
2019-Dec-11 12:16 188 10.0
2019-Dec-11 12:01 192 9.4
2019-Dec-11 11:46 319 8.9
2019-Dec-11 11:31 319 8.9
2019-Dec-11 11:15 319 8.3
2019-Dec-11 11:02 319 8.3
2019-Dec-11 10:46 319 7.8
2019-Dec-11 10:32 319 7.8
2019-Dec-11 10:16 319 7.8
2019-Dec-11 10:00 319 7.8
2019-Dec-11 09:46 319 7.8
2019-Dec-11 09:30 319 7.8
2019-Dec-11 09:16 319 7.2
2019-Dec-11 09:00 319 6.1
2019-Dec-11 08:45 319 6.1
2019-Dec-11 08:30 319 5.6
2019-Dec-11 08:15 319 5.6
2019-Dec-11 08:04 319 5.6
2019-Dec-11 07:47 319 5.6
2019-Dec-11 07:34 319 6.1
2019-Dec-11 07:18 319 5.0
2019-Dec-11 07:01 319 3.9
2019-Dec-11 06:51 319 4.4
2019-Dec-11 06:33 319 4.4
2019-Dec-11 06:16 319 4.4
2019-Dec-11 06:02 319 5.0
2019-Dec-11 05:47 319 5.0
2019-Dec-11 05:34 319 4.4
2019-Dec-11 05:18 319 5.0
2019-Dec-11 05:01 319 5.6
2019-Dec-11 04:47 319 6.1
2019-Dec-11 04:32 319 6.1
2019-Dec-11 04:16 319 6.7
2019-Dec-11 04:02 319 6.1
2019-Dec-11 03:47 326 6.1
2019-Dec-11 03:32 329 6.1
2019-Dec-11 03:16 298 5.6
2019-Dec-11 03:01 299 5.6
2019-Dec-11 02:47 298 5.6
2019-Dec-11 02:30 298 5.6
2019-Dec-11 02:17 297 5.6
2019-Dec-11 02:01 297 5.6
2019-Dec-11 01:45 298 5.6
2019-Dec-11 01:30 297 5.6
2019-Dec-11 01:16 298 5.6
2019-Dec-11 01:01 297 6.1
2019-Dec-11 00:45 298 6.1
2019-Dec-11 00:30 296 5.6
2019-Dec-11 00:15 296 5.6
2019-Dec-11 00:00 296 5.6
2019-Dec-10 23:46 296 5.6
2019-Dec-10 23:30 296 6.7
2019-Dec-10 23:15 298 6.1
2019-Dec-10 23:00 298 6.1
2019-Dec-10 22:45 294 6.1
2019-Dec-10 22:30 303 6.1
2019-Dec-10 22:15 277 6.7
2019-Dec-10 22:00 269 6.7
2019-Dec-10 21:45 284 6.7
2019-Dec-10 21:31 289 6.7
2019-Dec-10 21:15 302 6.7
2019-Dec-10 21:00 290 6.7
2019-Dec-10 20:45 290 6.7
2019-Dec-10 20:33 284 6.7
2019-Dec-10 20:18 279 6.7
2019-Dec-10 20:04 279 6.7
2019-Dec-10 19:48 279 6.7
2019-Dec-10 19:18 277 6.1
2019-Dec-10 19:05 277 6.7
2019-Dec-10 18:49 277 6.7
2019-Dec-10 18:32 275 6.7
2019-Dec-10 18:17 275 6.7
2019-Dec-10 18:04 306 7.8
2019-Dec-10 17:47 306 7.8
2019-Dec-10 17:32 306 7.2
2019-Dec-10 17:17 304 7.8
2019-Dec-10 17:02 295 8.3
2019-Dec-10 16:48 176 8.9
2019-Dec-10 16:31 176 9.4
2019-Dec-10 16:18 176 10.6
2019-Dec-10 16:01 170 11.1
2019-Dec-10 15:45 170 11.7
2019-Dec-10 15:31 170 12.2
2019-Dec-10 15:16 170 12.8
2019-Dec-10 15:01 170 12.8
2019-Dec-10 14:46 165 13.3
2019-Dec-10 14:32 217 13.9
2019-Dec-10 14:16 177 15.0
2019-Dec-10 14:01 169 15.6
2019-Dec-10 13:46 149 16.1
2019-Dec-10 13:32 213 16.1
2019-Dec-10 13:15 195 16.7
2019-Dec-10 13:01 197 16.7
2019-Dec-10 12:46 154 16.7
2019-Dec-10 12:31 140 16.7
2019-Dec-10 12:16 148 0 16.1
2019-Dec-10 12:02 136 16.1
2019-Dec-10 11:45 136 0 16.1
2019-Dec-10 11:31 105 16.1
2019-Dec-10 11:15 105 16.7
2019-Dec-10 11:00 105 0 16.1
2019-Dec-10 10:45 090 0 15.6
2019-Dec-10 10:30 084 15.6
2019-Dec-10 10:15 040 15.0
2019-Dec-10 10:00 061 13.9
2019-Dec-10 09:45 275 12.8
2019-Dec-10 09:32 277 11.7
2019-Dec-10 09:17 097 9.4
2019-Dec-10 09:01 097 7.8
2019-Dec-10 08:46 097 7.2
2019-Dec-10 08:32 097 7.8
2019-Dec-10 08:17 096 9.4
2019-Dec-10 08:01 271 9.4
2019-Dec-10 07:47 244 8.9
2019-Dec-10 07:32 244 8.9
2019-Dec-10 07:16 262 7.8
2019-Dec-10 07:01 269 7.2
2019-Dec-10 06:47 128 7.2
2019-Dec-10 06:31 128 7.2
2019-Dec-10 06:16 118 7.2
2019-Dec-10 06:00 118 7.2
2019-Dec-10 05:45 117 7.8
2019-Dec-10 05:30 254 9.4
2019-Dec-10 05:15 259 9.4
2019-Dec-10 05:00 241 0 9.4
2019-Dec-10 04:45 223 9.4
2019-Dec-10 04:30 234 9.4
2019-Dec-10 04:15 208 9.4
2019-Dec-10 04:01 330 9.4
2019-Dec-10 03:45 236 9.4
2019-Dec-10 03:30 159 9.4
2019-Dec-10 03:15 308 9.4
2019-Dec-10 03:00 266 9.4
2019-Dec-10 02:45 323 0 10.0
2019-Dec-10 02:30 212 0 9.4
2019-Dec-10 02:15 084 0 9.4
2019-Dec-10 02:00 054 8.9
2019-Dec-10 01:45 054 8.9
2019-Dec-10 01:30 074 9.4
2019-Dec-10 01:16 095 0 9.4
2019-Dec-10 01:02 125 9.4
2019-Dec-10 00:46 044 0 9.4
2019-Dec-10 00:31 309 1 9.4
2019-Dec-10 00:16 036 2 10.0
2019-Dec-10 00:01 071 3 9.4
2019-Dec-09 23:46 022 4 9.4
2019-Dec-09 23:31 069 3 9.4
2019-Dec-09 23:15 296 1 9.4
2019-Dec-09 23:00 063 0 9.4
2019-Dec-09 22:45 065 2 8.9
2019-Dec-09 22:31 101 1 8.9
2019-Dec-09 22:16 124 1 9.4
2019-Dec-09 22:01 176 1 9.4